Cosmos 1939 - Orbit

View from above orbital plane
View from above orbital plane
View from above satellite
View from above satellite

Ground track
Ground track

The orbit data is extracted from the following two-line orbital elements,

1 19045U 88032A   13145.72528863  .00016890  00000-0  37712-3 0  5000
2 19045 097.2787 204.0174 0007331 083.7796 063.1993 15.43578117380401
Epoch (UTC): 25 May 2013 17:24:24
Eccentricity: 0.0007331
inclination: 97.2787°
perigee height: 430 km
apogee height: 440 km
right ascension of ascending node: 204.0174°
argument of perigee: 83.7796°
revolutions per day: 15.43578117
mean anomaly at epoch: 63.1993°
orbit number at epoch: 38040

The dashed part of the orbit path shows where the satellite is in the earth's shadow,  

Developed and maintained by Chris Peat, Heavens-Above GmbH. Please read the updated FAQ before sending e-mail. Imprint. DLR